Find Astra 2F

NORAD ID: 38778 Int'l Des: 2012-051 Owner: SESSA Country: L operational
HEOCIRCULARGSOGEO

Live Position

Loading 3D Globe...

About Astra 2F

Description loading...

Upcoming Passes

Passes for default location (London). Set your location on the main map for personalized predictions.

Altitude History

Loading altitude history...

Two-Line Element Set

1 38778U 12051A 26106.02038875 .00000156 00000-0 00000-0 0 9992
2 38778 0.0663 256.2775 0000834 0.6149 342.8397 1.00274081 40518
Epoch: Apr 16, 2026 • Age: 12 hours

Current Status

Altitude 35788.8 km
Velocity 3.07 km/s
Sub-Earth Point 0.01°N, 28.22°E
Launch Date Sep 28, 2012
Age 13.5 years
Type other

Technical Details

Classification Payload
Mass 5968.00 kg
Dry Mass 2660.00 kg
Total Mass 5968.00 kg
Length 5.00 m
Diameter 2.50 m
Span 39.00 m
Shape Box + 2 pan
Manufacturer EADSB
Bus Type Eurostar 3000
Phase Status In Orbit
Owner/State SESSA/L

Most Searched